カタログに戻る

DMSP 5D-2 F13 DEB

運用中SSO
NORAD 42266·DEBRIS·🇺🇸 United States

打ち上げ Mar 24, 1995 から Vandenberg Space Force Base

Loading…

次のパス (今後24時間)

TLE

最新Source: Space-Track

元期: Sep 14, 2026, 08:34 UTC

1 42266U 95015GG  26257.35720385  .00003621  00000-0  97089-3 0  9993
2 42266  98.5812 307.3626 0020715   6.8106 353.3364 14.48671488586533

AllMySatでDMSP 5D-2 F13 DEBをリアルタイム追跡

Download on the App Store